TimeEST,TemperatureF,Dew PointF,Humidity,Sea Level PressureIn,VisibilityMPH,Wind Direction,Wind SpeedMPH,Gust SpeedMPH,PrecipitationIn,Events,Conditions,WindDirDegrees,DateUTC
12:54 AM,21.0,15.1,78,30.41,10.0,WSW,8.1,-,N/A,,Partly Cloudy,240,2013-01-18 05:54:00
1:54 AM,21.9,15.1,75,30.43,10.0,WSW,11.5,-,N/A,,Scattered Clouds,250,2013-01-18 06:54:00
2:54 AM,21.0,14.0,74,30.46,10.0,WSW,10.4,-,N/A,,Partly Cloudy,250,2013-01-18 07:54:00
3:54 AM,19.9,15.1,81,30.47,10.0,WSW,8.1,-,N/A,,Partly Cloudy,250,2013-01-18 08:54:00
4:54 AM,19.9,15.1,81,30.45,10.0,WSW,8.1,-,N/A,,Partly Cloudy,240,2013-01-18 09:54:00
5:54 AM,19.9,15.1,81,30.46,10.0,WSW,8.1,-,N/A,,Scattered Clouds,240,2013-01-18 10:54:00
6:54 AM,19.9,15.1,81,30.47,10.0,SW,6.9,-,N/A,,Mostly Cloudy,230,2013-01-18 11:54:00
7:54 AM,19.9,16.0,85,30.48,10.0,SW,8.1,-,N/A,,Mostly Cloudy,220,2013-01-18 12:54:00
8:54 AM,21.9,17.1,82,30.48,10.0,SW,6.9,-,N/A,,Mostly Cloudy,220,2013-01-18 13:54:00
9:54 AM,25.0,18.0,75,30.49,10.0,SSW,11.5,-,N/A,,Mostly Cloudy,210,2013-01-18 14:54:00
10:54 AM,28.0,19.9,72,30.47,10.0,SW,13.8,-,N/A,,Mostly Cloudy,220,2013-01-18 15:54:00
11:54 AM,30.0,19.9,66,30.44,10.0,SSW,16.1,-,N/A,,Mostly Cloudy,210,2013-01-18 16:54:00
12:54 PM,33.1,21.0,61,30.38,10.0,SSW,19.6,26.5,N/A,,Scattered Clouds,210,2013-01-18 17:54:00
1:54 PM,35.1,21.9,59,30.34,10.0,SW,21.9,-,N/A,,Mostly Cloudy,220,2013-01-18 18:54:00
2:54 PM,34.0,19.9,56,30.30,10.0,SSW,18.4,25.3,N/A,,Mostly Cloudy,200,2013-01-18 19:54:00
3:54 PM,36.0,21.9,57,30.25,10.0,SSW,19.6,26.5,N/A,,Partly Cloudy,200,2013-01-18 20:54:00
4:54 PM,35.1,21.9,59,30.23,10.0,SSW,16.1,-,N/A,,Partly Cloudy,200,2013-01-18 21:54:00
5:54 PM,34.0,21.9,61,30.21,10.0,SSW,18.4,25.3,N/A,,Scattered Clouds,200,2013-01-18 22:54:00
6:54 PM,34.0,23.0,64,30.18,10.0,SSW,17.3,25.3,N/A,,Scattered Clouds,200,2013-01-18 23:54:00
7:54 PM,35.1,23.0,61,30.14,10.0,SSW,20.7,32.2,N/A,,Partly Cloudy,200,2013-01-19 00:54:00
8:54 PM,36.0,23.0,59,30.11,10.0,SSW,24.2,34.5,N/A,,Clear,200,2013-01-19 01:54:00
9:54 PM,37.0,24.1,59,30.09,10.0,SSW,27.6,36.8,N/A,,Clear,210,2013-01-19 02:54:00
10:54 PM,36.0,24.1,62,30.09,10.0,SW,19.6,-,N/A,,Scattered Clouds,220,2013-01-19 03:54:00
11:54 PM,36.0,25.0,64,30.08,10.0,SW,19.6,-,N/A,,Partly Cloudy,220,2013-01-19 04:54:00